Total_Precipitation_Accumulation
2.10 2.48 2.89 3.37 3.90 4.46 5.17 5.86 6.47 6.61 6.48 6.17 5.87 5.63 5.17 4.86 4.55 4.31 4.16 3.93 3.63 3.50 3.90 3.56 3.92 3.77 3.74 3.60 3.58 3.81 3.85 3.49 3.67 4.06 3.66 3.09 2.69 2.64 2.50 2.48 2.59 2.47 2.64
2.03 2.42 2.99 3.29 3.64 4.19 4.80 5.20 5.34 5.20 5.11 5.21 5.18 4.91 4.89 4.73 4.67 4.52 4.40 3.93 3.70 3.58 3.36 3.59 3.41 3.38 3.53 3.34 3.30 3.55 3.55 3.19 3.50 3.83 3.95 3.43 3.16 2.66 2.06 2.26 2.45 2.54 2.82
1.68 2.05 2.62 2.96 3.14 3.67 4.04 4.05 4.07 4.09 4.24 4.34 4.31 4.36 4.59 4.67 4.78 4.77 4.56 4.20 3.96 3.73 3.52 3.38 3.24 3.23 3.03 3.21 3.28 3.33 3.48 3.45 3.34 3.42 3.82 3.58 3.21 2.73 2.20 2.06 2.31 2.70 3.03
1.42 1.74 2.10 2.34 2.63 2.94 3.11 3.12 3.26 3.44 3.57 3.66 3.66 3.58 3.63 3.90 4.19 4.47 4.62 4.57 4.28 3.96 3.63 3.36 3.15 3.00 2.81 3.13 2.81 2.96 3.29 3.53 3.22 3.15 3.10 3.11 3.28 3.19 2.78 2.26 2.08 2.33 2.58
1.47 1.65 1.78 1.99 2.11 2.21 2.38 2.45 2.73 3.22 3.45 3.52 3.64 3.59 3.34 3.36 3.48 3.64 3.86 3.87 3.90 3.71 3.32 3.20 3.13 2.94 2.74 2.80 2.80 3.17 3.16 3.13 3.05 3.13 3.08 3.19 3.40 3.19 3.05 2.70 2.54 2.60 2.45
1.19 1.40 1.67 1.79 1.80 1.83 1.98 2.19 2.52 3.11 3.44 3.52 3.42 3.44 3.47 3.55 3.45 3.42 3.53 3.45 3.42 3.32 3.02 2.87 3.01 2.90 2.78 2.84 2.83 2.93 2.99 3.14 3.20 3.18 3.18 3.26 3.26 3.30 3.49 3.10 2.86 2.82 2.47
0.99 0.99 1.17 1.42 1.46 1.45 1.61 1.87 2.15 2.63 2.97 3.13 2.98 2.95 3.16 3.38 3.28 3.09 3.03 3.02 2.87 2.79 2.74 2.75 2.87 2.76 2.81 2.86 2.97 3.01 2.98 3.10 3.13 3.04 3.14 3.25 3.20 3.35 3.51 3.42 3.03 2.76 2.45
0.77 0.72 0.79 0.98 1.25 1.27 1.39 1.55 1.82 2.09 2.40 2.62 2.68 2.75 2.95 3.08 3.03 3.24 2.97 2.81 2.47 2.36 2.48 2.69 2.69 2.59 2.57 2.61 3.06 3.06 3.06 3.17 3.08 2.91 3.26 3.29 3.06 3.28 3.46 3.61 3.68 3.26 2.98
0.68 0.71 0.77 0.99 1.08 1.07 1.18 1.34 1.56 1.77 2.04 2.28 2.48 2.54 2.52 2.55 2.70 2.87 2.81 2.64 2.56 2.29 2.38 2.50 2.74 2.81 2.85 2.90 3.08 3.03 3.05 3.27 3.21 3.15 3.35 3.28 3.08 3.13 3.24 3.52 3.85 3.94 3.64
0.72 0.72 0.73 0.79 0.84 0.91 1.06 1.30 1.51 1.54 1.79 2.17 2.42 2.37 2.45 2.38 2.53 2.51 2.49 2.52 2.44 2.39 2.47 2.50 2.59 2.79 2.91 2.93 3.06 3.03 3.10 3.29 3.30 3.37 3.44 3.29 3.02 3.21 3.22 3.35 3.74 4.09 4.17
0.77 0.73 0.74 0.74 0.86 0.83 0.93 1.13 1.31 1.45 1.73 2.11 2.44 2.51 2.46 2.46 2.51 2.33 2.28 2.41 2.43 2.42 2.51 2.55 2.55 2.52 2.66 2.89 3.11 3.01 3.16 3.28 3.30 3.26 3.17 3.08 3.15 3.35 3.28 3.42 3.58 3.86 4.15
0.65 0.60 0.59 0.67 0.68 0.70 0.83 1.18 1.48 1.86 2.07 2.42 2.82 2.92 2.71 2.50 2.33 2.12 2.11 2.29 2.46 2.50 2.49 2.51 2.50 2.43 2.54 2.83 2.96 3.05 3.34 3.48 3.33 3.23 3.21 3.04 3.20 3.30 3.28 3.36 3.34 3.46 3.83
0.62 0.60 0.58 0.69 0.71 0.70 0.73 0.85 1.07 1.52 1.93 2.34 2.73 2.69 2.41 2.18 2.13 2.09 2.11 2.28 2.49 2.49 2.46 2.48 2.50 2.59 2.77 2.96 3.05 3.13 3.30 3.28 3.17 3.24 3.17 3.02 3.15 3.03 3.10 3.15 3.14 3.13 3.28
0.73 0.67 0.65 0.66 0.67 0.69 0.68 0.79 0.91 1.01 1.31 1.87 2.27 2.21 2.01 1.93 1.95 1.99 2.07 2.13 2.25 2.30 2.34 2.51 2.66 2.77 2.94 3.05 3.09 3.16 3.14 3.09 2.93 2.84 2.77 2.79 2.94 3.03 3.07 2.98 2.95 3.04 3.20
0.73 0.68 0.68 0.78 0.80 0.87 0.88 0.88 0.91 0.93 1.15 1.71 2.04 2.03 1.90 1.90 1.88 1.87 2.02 2.13 2.22 2.23 2.47 2.62 2.68 2.71 2.72 2.77 2.97 2.95 2.85 2.84 2.68 2.55 2.37 2.39 2.74 2.90 2.91 2.68 2.82 2.95 3.01
0.71 0.69 0.63 0.73 0.86 0.94 0.98 0.99 1.05 1.10 1.25 1.63 1.96 1.97 1.86 1.81 1.74 1.83 2.00 2.15 2.23 2.42 2.63 2.61 2.60 2.52 2.12 2.23 2.42 2.43 2.43 2.47 2.44 2.29 2.23 2.20 2.27 2.31 2.37 2.40 2.45 2.56 2.65
0.71 0.71 0.76 0.85 1.05 1.00 1.05 1.13 1.07 1.13 1.32 1.70 1.98 2.07 1.99 1.93 1.90 1.84 2.02 2.24 2.48 2.70 2.79 2.71 2.63 2.44 2.33 2.23 2.08 2.05 2.08 2.22 2.23 2.24 2.31 1.98 1.79 2.01 2.03 2.22 2.24 2.17 2.29
0.78 0.88 0.87 0.96 1.04 1.04 1.11 1.18 1.20 1.25 1.43 1.75 2.02 2.17 2.13 2.12 2.21 2.22 2.30 2.50 2.75 2.93 2.93 2.87 2.75 2.61 2.48 2.39 2.14 2.10 2.00 2.08 2.11 2.13 2.17 2.11 1.99 1.99 2.15 2.28 2.24 2.05 2.01
0.93 0.99 1.10 1.16 1.25 1.26 1.21 1.29 1.45 1.51 1.58 1.68 1.98 2.20 2.28 2.35 2.35 2.38 2.63 2.83 2.96 2.97 2.92 2.98 2.88 2.74 2.69 2.51 2.13 1.95 1.85 2.00 2.04 2.06 2.01 1.97 1.90 2.05 2.00 1.94 1.94 1.94 1.93
1.11 1.12 1.19 1.28 1.32 1.36 1.43 1.51 1.65 1.80 1.93 2.03 2.18 2.47 2.68 2.84 2.86 2.92 2.98 3.02 3.12 3.07 3.08 3.00 2.92 2.81 2.77 2.69 2.12 1.86 1.75 1.94 1.98 2.04 2.01 1.91 1.77 1.83 1.78 1.69 1.81 1.81 1.83
1.10 1.19 1.23 1.34 1.43 1.45 1.59 1.90 2.07 2.15 2.31 2.47 2.54 2.81 3.17 3.35 3.29 3.32 3.20 3.10 3.07 3.08 3.08 2.98 2.89 2.82 2.72 2.63 2.16 1.98 1.92 2.04 2.13 2.08 2.00 1.96 1.89 1.70 1.68 1.63 1.63 1.71 1.81
1.09 1.22 1.28 1.36 1.56 1.82 2.02 2.31 2.51 2.57 2.64 2.78 3.07 3.31 3.49 3.31 3.20 3.38 3.27 3.27 3.33 3.28 3.16 3.08 2.98 3.02 2.91 2.66 2.34 2.12 2.09 2.17 2.22 2.23 2.19 2.13 1.96 1.72 1.68 1.59 1.55 1.60 1.53
1.04 1.16 1.29 1.49 1.71 2.01 2.41 2.64 2.72 2.92 2.93 2.98 3.19 3.25 3.29 3.39 3.53 3.60 3.48 3.42 3.40 3.32 3.12 3.04 2.88 2.83 2.95 2.95 2.54 2.24 2.23 2.26 2.15 2.26 2.37 2.15 1.91 1.74 1.56 1.57 1.62 1.53 1.38
1.10 1.16 1.31 1.57 1.91 2.21 2.55 2.71 2.76 2.78 2.79 2.81 2.85 2.97 3.14 3.25 3.37 3.62 3.63 3.49 3.31 3.20 3.11 3.08 2.94 2.86 2.91 2.84 2.46 2.14 2.11 2.18 2.09 2.11 2.21 2.10 1.92 1.76 1.62 1.60 1.61 1.51 1.53
1.22 1.32 1.45 1.58 1.79 2.10 2.40 2.52 2.64 2.73 2.89 2.91 2.83 2.75 2.77 2.88 3.03 3.16 3.26 3.22 3.20 3.09 2.95 2.76 2.68 2.65 2.64 2.64 2.40 2.14 2.08 2.20 2.29 2.27 2.22 2.16 2.02 1.88 1.77 1.75 1.78 1.83 1.84
1.19 1.32 1.46 1.65 1.85 2.07 2.29 2.38 2.55 2.68 2.84 2.85 2.73 2.66 2.61 2.68 2.74 2.76 2.75 2.63 2.54 2.43 2.27 2.18 2.10 2.05 2.12 2.30 2.14 1.99 2.03 2.25 2.41 2.28 2.14 2.23 2.17 2.03 1.95 1.93 1.94 1.96 1.91